Gerald R Ford International Airport (GRR)


Airport Diagram
Current Weather/Forecast (VFR Conditions)
METAR KGRR 300653Z AUTO 36006KT 10SM OVC031 02/00 A3007 RMK AO2 SLP190 T00220000
TAF KGRR 300554Z 3006/3106 02006KT P6SM OVC025 FM301000 36005KT P6SM BKN040 FM301600 33008KT P6SM BKN040 FM310000 VRB03KT P6SM SCT060

All Charts
General
Chart Name Download
AIRPORT DIAGRAM
TAKEOFF MINIMUMS
ALTERNATE MINIMUMS
RADAR MINIMUMS
HOT SPOT

Approaches
Chart Name Download
ILS OR LOC RWY 08R
ILS OR LOC RWY 26L
ILS OR LOC RWY 35
ILS RWY 35 (SA CAT I - II)
RNAV (GPS) RWY 08L
RNAV (GPS) RWY 08R
RNAV (GPS) RWY 17
RNAV (GPS) RWY 26L
RNAV (GPS) RWY 26R
RNAV (GPS) RWY 35
VOR RWY 17